"Pseudo-MPEC" for IVt31If

Created 2021 Sep 19 22:07:07 UT using Find_Orb

Click here for an explanation of pseudo-MPECs

 
 Astrometry: 
     IVt31If !C2021 09 05INnYjGB$5Sv/AsjSJ@mu[.ln9MMd--g5UFh*lvZU=xO-,y'Stba@W84
     IVt31If !C2021 09 05Vn)Uj+jE+pNUH$5#uhR\NRc'Ki!'CIdb$TGnS-?/[tW9c[4+gpYsW84
     IVt31If !C2021 09 05YaT^PUes$)5(]7PjDoYC1raF`l4VL-i3aM=pljtuV2q-;VVNha4`W84
     IVt31If !C2021 09 05-pYd_lK2cv$TpS4'e+hADx(x@(9.BG18ZuQ'=jPuD!N2(9=J4qH2W84
     IVt31If !C2021 09 05y!,[:;W;ovUFWUcG`8FafXiYAstrometryP9nG;Z!g6W(nL.=cYrW84
     IVt31If !C2021 09 05[[Xt'?`_bt5Uh7qHl35\Dq*K%HMBfa;!BMuIm6b/0RexC6iIjKHaW84
     IVt31If !C2021 09 05VsAXcDaXE],u`S1#bAU'sR=sAA=lC%FZp/X2BXoNS0[d3C_B%2tvW84
     IVt31If !C2021 09 05_;q#a:(d0(x'7W935baBrB`_@E'y1UOppGredacted;s2aUPL]NSW84
     IVt31If !C2021 09 05O_lbN.Jp'FV@@UsfWI](p0:1fD]Ir6xX\a`keWLe3F`CHY/(FbxWW84
     IVt31If !C2021 09 05V0CGFr8E*t`k?%EjiFP2n0vN8BjkyFUvFCs:BWi(b-$bQn.(ZVlVW84
     IVt31If !C2021 09 05_^SOORv*)vaoUH'D*)a7b#h0eJjAp!ZUT0*``ii6Po`+qg*!JEl2W84
     IVt31If !C2021 09 05H5B393.04iehSoNm8r)BAC(902n[W;mYPjli#ykCdYP4aCY'IUJQW84
     IVt31If !C2021 09 05H5cpJt1clickqSaay+dS*/hereQIh'7*K==,fr0=tEZkI.A;d(nIW84
     IVt31If !C2021 09 05GHSVyyZform]+1kwMo!G)lq8ol-3N\uJi,#F_]9vexplanationCW84
     IVt31If !C2021 09 05JP4WjKYlTK=lt/Ta]Vw3Zgs]g2t.q+8`apP2OBfT_3)HgD,CBs#cW84

Station data:
(W84) Cerro Tololo-DECam  (S30.169597 W70.806420)  Chile. 4.0-m f/2.87
   reflector + CCD.

Orbital elements:  IVt31If
   Perihelion 2021 Nov 14.936333 +/- 29.4155 TT = 22:28:19 (JD 2459533.436333)
Epoch 2021 Sep  5.0 TT = JDT 2459462.5   Earth MOID: 0.0030   AutoNEOCP
M 294.79226411 +/- 38.991196        (J2000 ecliptic)
n   0.91924312 +/- 0.538406         Peri.   38.38648 +/- 73.705785
a   1.04756856 +/- 0.409037         Node    17.11769 +/- 48.178728
e   0.0618958 +/- 0.244299          Incl.    2.86382 +/- 22.165275
P   1.07/391.62d           H 26.8   G  0.15   U 12.3  SR
q 0.98272843 +/- 0.211327    Q 1.11240868 +/- 25.8319
From 15 observations 2021 Sept. 5 (33.0 min); mean residual 0".13
Residuals in arcseconds: 
210905 W84  .04+  .11-    210905 W84  .38+  .25+    210905 W84  .04+  .12+    
210905 W84  .04+  .01+    210905 W84  .09-  .15-    210905 W84  .03-  .01+    
210905 W84  .11-  .11-    210905 W84  .04+  .11+    210905 W84  .03+  .02-    
210905 W84  .10-  .01-    210905 W84  .01+  .02+    210905 W84  .18+  .16-    
210905 W84  .19-  .03+    210905 W84  .19-  .08-    210905 W84  .05-  .08+    

Ephemerides (geocentric):
Date (UTC) HH   RA              Dec         delta   r     elong  mag " sig PA
---- -- -- --  -------------   -----------  ------ ------ -----  --- ---- ---
2021 09 19 22  05 08 48.120   -11 34 15.42  .02892 1.0098 100.0 21.9  70d 162
2021 09 19 23  05 09 07.102   -11 30 13.56  .02890 1.0097  99.9 21.9  70d 162
2021 09 20 00  05 09 26.098   -11 26 11.30  .02888 1.0097  99.9 21.9  70d 162
2021 09 20 01  05 09 45.108   -11 22 08.63  .02887 1.0097  99.9 21.9  70d 162
2021 09 20 02  05 10 04.131   -11 18 05.57  .02885 1.0096  99.8 21.9  70d 162
2021 09 20 03  05 10 23.167   -11 14 02.11  .02883 1.0096  99.8 21.9  70d 162
2021 09 20 04  05 10 42.217   -11 09 58.25  .02881 1.0095  99.7 21.9  70d 162
2021 09 20 05  05 11 01.281   -11 05 53.99  .02879 1.0095  99.7 21.9  70d 162
2021 09 20 06  05 11 20.357   -11 01 49.34  .02877 1.0095  99.6 21.9  70d 162
2021 09 20 07  05 11 39.448   -10 57 44.29  .02875 1.0094  99.6 21.9  70d 162
2021 09 20 08  05 11 58.552   -10 53 38.85  .02873 1.0094  99.6 21.9  70d 162
2021 09 20 09  05 12 17.669   -10 49 33.01  .02872 1.0094  99.5 21.9  70d 162
2021 09 20 10  05 12 36.800   -10 45 26.79  .02870 1.0093  99.5 21.9  70d 162
2021 09 20 11  05 12 55.943   -10 41 20.17  .02868 1.0093  99.4 21.9  70d 162
2021 09 20 12  05 13 15.101   -10 37 13.16  .02866 1.0093  99.4 21.9  70d 162
2021 09 20 13  05 13 34.271   -10 33 05.77  .02864 1.0092  99.3 21.9  70d 162
2021 09 20 14  05 13 53.455   -10 28 57.99  .02863 1.0092  99.3 21.9  70d 162
2021 09 20 15  05 14 12.652   -10 24 49.82  .02861 1.0091  99.2 21.9  70d 162
2021 09 20 16  05 14 31.863   -10 20 41.26  .02859 1.0091  99.2 21.9  70d 162
2021 09 20 17  05 14 51.087   -10 16 32.33  .02857 1.0091  99.2 21.9  70d 162
2021 09 20 18  05 15 10.323   -10 12 23.01  .02855 1.0090  99.1 21.9  70d 162
2021 09 20 19  05 15 29.573   -10 08 13.31  .02854 1.0090  99.1 21.9  70d 162
2021 09 20 20  05 15 48.837   -10 04 03.23  .02852 1.0090  99.0 21.9  70d 162
2021 09 20 21  05 16 08.113   -09 59 52.77  .02850 1.0089  99.0 21.9  70d 162
2021 09 20 22  05 16 27.402   -09 55 41.93  .02848 1.0089  98.9 21.9  70d 162
2021 09 20 23  05 16 46.705   -09 51 30.72  .02847 1.0089  98.9 21.9  70d 162
2021 09 21 00  05 17 06.021   -09 47 19.13  .02845 1.0088  98.8 21.9  70d 162
2021 09 21 01  05 17 25.349   -09 43 07.17  .02843 1.0088  98.8 21.9  70d 162
2021 09 21 02  05 17 44.691   -09 38 54.83  .02842 1.0087  98.8 21.9  70d 162
2021 09 21 03  05 18 04.045   -09 34 42.13  .02840 1.0087  98.7 21.9  70d 162
2021 09 21 04  05 18 23.413   -09 30 29.05  .02838 1.0087  98.7 21.9  70d 162
2021 09 21 05  05 18 42.794   -09 26 15.61  .02837 1.0086  98.6 21.9  70d 162
2021 09 21 06  05 19 02.187   -09 22 01.79  .02835 1.0086  98.6 21.9  70d 162
2021 09 21 07  05 19 21.593   -09 17 47.62  .02833 1.0086  98.5 21.9  70d 162
2021 09 21 08  05 19 41.012   -09 13 33.08  .02832 1.0085  98.5 21.9  70d 162
2021 09 21 09  05 20 00.444   -09 09 18.17  .02830 1.0085  98.4 21.9  70d 162
2021 09 21 10  05 20 19.889   -09 05 02.90  .02828 1.0085  98.4 21.9  70d 162
2021 09 21 11  05 20 39.347   -09 00 47.28  .02827 1.0084  98.4 21.9  70d 162
2021 09 21 12  05 20 58.817   -08 56 31.29  .02825 1.0084  98.3 21.9  70d 162
2021 09 21 13  05 21 18.300   -08 52 14.95  .02823 1.0083  98.3 21.9  70d 162
2021 09 21 14  05 21 37.796   -08 47 58.25  .02822 1.0083  98.2 21.9  70d 162
2021 09 21 15  05 21 57.304   -08 43 41.19  .02820 1.0083  98.2 21.9  70d 162
2021 09 21 16  05 22 16.826   -08 39 23.79  .02819 1.0082  98.1 21.9  70d 162
2021 09 21 17  05 22 36.359   -08 35 06.03  .02817 1.0082  98.1 21.9  70d 162
2021 09 21 18  05 22 55.905   -08 30 47.92  .02815 1.0082  98.0 21.9  70d 162
2021 09 21 19  05 23 15.464   -08 26 29.46  .02814 1.0081  98.0 21.9  70d 162
2021 09 21 20  05 23 35.036   -08 22 10.66  .02812 1.0081  97.9 21.9  70d 162
2021 09 21 21  05 23 54.619   -08 17 51.51  .02811 1.0081  97.9 21.9  70d 162